sat.trackr.live / text

‹ back to catalog

STARLINK-3633

NORAD 51793 · 2022-017AB

PAYLOAD ACTIVE UNKNOWN

§ Identity

Operator
Country
US
Launch date
2022-02-25
Launch site
AFWTR
Launch vehicle
Mass (kg)
RCS (m²)

Purposes: comms

External: N2YO · Heavens-Above · Gunter

§ Orbital elements

Epoch: 2026-06-18T15:51:08.596224Z

Period
88.53 min
Inclination
53.2023°
Eccentricity
0.0008435
Mean motion
16.26614750 rev/d
Perigee alt
196.1 km
Apogee alt
207.2 km
Semi-major
6,579.8 km
B*
5.3321e-4
RAAN
205.1680°
Arg perigee
342.5180°
Mean anomaly
17.5572°
Rev number
23,992

§ Raw data

STARLINK-36331 51793U 22017AB  26169.66051616  .01843878  11997-4  53321-3 0  99992 51793  53.2023 205.1680 0008435 342.5180  17.5572 16.26614750239927

JSON: /api/v1/satellites/51793 · /tle

For live sub-satellite position, see the globe view (requires WebGL).

§ Visibility from observer

Set your observer location to see the next 7 days of passes ≥ 10°. The values pass through the URL so the page stays shareable.

No JS? Fill the form by hand. The geolocation button needs JavaScript.